Sheldon, IA

6:55 PM CDT on April 30, 2017 (GMT -0500)
Sheldon Municipal

Weather History for KSHL - May, 2013

Change the Weather History Date:

Saturday, May 11, 2013

  Actual Average Record
Temperature  
Mean Temperature 47 °F -  
Max Temperature 57 °F 70 °F 87 °F (1958)
Min Temperature 35 °F 45 °F 31 °F (1960)
Degree Days  
Heating Degree Days 18    
Moisture  
Dew Point 26 °F    
Average Humidity 46    
Maximum Humidity 75    
Minimum Humidity 22    
Precipitation  
Precipitation 0.00 in - - ()
Sea Level Pressure  
Sea Level Pressure 30.19 in    
Wind  
Wind Speed 20 mph (NNW)    
Max Wind Speed 30 mph    
Max Gust Speed 38 mph    
Visibility 10 miles    
Events      
Averages and records for this station are not official NWS values.
T = Trace of Precipitation, MM = Missing Value Source: NWS Daily Summary

Daily Weather History Graph

Daily Weather History Graph

Search for Another Location

Airport or City:

Trip Planner

Search our weather history database for the weather conditions in past years. The results will help you decide how hot, cold, wet, or windy it might be!

Date:

Astronomy

May. 11, 2013 Rise Set
Actual Time 6:03 AM CDT 8:36 PM CDT
Civil Twilight 5:31 AM CDT 9:08 PM CDT
Nautical Twilight 4:50 AM CDT 9:49 PM CDT
Astronomical Twilight 4:05 AM CDT 10:35 PM CDT
Moon 7:11 AM CDT (5/11) 10:18 PM CDT (5/11)
Length of Visible Light 15h 37m
Length of Day
14h 32m
Waxing Crescent, 3% of the Moon is Illuminated
May 11
Waxing Crescent
May 17
First Quarter
May 24
Full
May 31
Last Quarter
Jun 8
New

Hourly Weather History & Observations

Time (CDT) Temp. Windchill Dew Point Humidity Pressure Visibility Wind Dir Wind Speed Gust Speed Precip Events Conditions
12:15 AM 57.2 °F - 42.8 °F 59% 30.02 in 10.0 mi North 21.9 mph 33.4 mph N/A   Overcast
12:35 AM 55.4 °F - 42.8 °F 63% 30.02 in 10.0 mi North 26.5 mph 33.4 mph N/A   Overcast
12:55 AM 53.6 °F - 41.0 °F 62% 30.04 in 10.0 mi North 24.2 mph 35.7 mph N/A   Overcast
1:15 AM 51.8 °F - 37.4 °F 58% 30.05 in 10.0 mi North 21.9 mph 33.4 mph N/A   Overcast
1:35 AM 50.0 °F - 33.8 °F 54% 30.06 in 10.0 mi North 21.9 mph 31.1 mph N/A   Mostly Cloudy
1:55 AM 48.2 °F - 30.2 °F 50% 30.07 in 10.0 mi North 20.7 mph 28.8 mph N/A   Scattered Clouds
2:15 AM 48.2 °F - 32.0 °F 54% 30.08 in 10.0 mi North 16.1 mph 23.0 mph N/A   Partly Cloudy
2:35 AM 46.4 °F 40.4 °F 32.0 °F 57% 30.09 in 10.0 mi North 13.8 mph 21.9 mph N/A   Clear
2:55 AM 44.6 °F 38.1 °F 30.2 °F 57% 30.09 in 10.0 mi NNW 13.8 mph - N/A   Clear
3:15 AM 44.6 °F 38.1 °F 30.2 °F 57% 30.10 in 10.0 mi North 13.8 mph - N/A   Clear
3:35 AM 42.8 °F 36.6 °F 30.2 °F 61% 30.11 in 10.0 mi North 11.5 mph - N/A   Clear
3:55 AM 42.8 °F 36.6 °F 30.2 °F 61% 30.12 in 10.0 mi NNW 11.5 mph - N/A   Clear
4:15 AM 42.8 °F 37.0 °F 30.2 °F 61% 30.12 in 10.0 mi NNW 10.4 mph - N/A   Clear
4:35 AM 41.0 °F 33.9 °F 30.2 °F 65% 30.12 in 10.0 mi NNW 12.7 mph - N/A   Clear
4:55 AM 41.0 °F 33.1 °F 32.0 °F 70% 30.13 in 10.0 mi NNW 15.0 mph - N/A   Clear
5:15 AM 41.0 °F 33.5 °F 30.2 °F 65% 30.13 in 10.0 mi NNW 13.8 mph - N/A   Clear
5:35 AM 41.0 °F 33.1 °F 30.2 °F 65% 30.14 in 10.0 mi NNW 15.0 mph - N/A   Clear
5:55 AM 41.0 °F 33.9 °F 30.2 °F 65% 30.15 in 10.0 mi NW 12.7 mph - N/A   Clear
6:15 AM 39.2 °F 32.0 °F 32.0 °F 75% 30.15 in 10.0 mi NNW 11.5 mph - N/A   Clear
6:35 AM 39.2 °F 32.5 °F 32.0 °F 75% 30.16 in 10.0 mi NW 10.4 mph - N/A   Clear
6:55 AM 39.2 °F 31.2 °F 32.0 °F 75% 30.17 in 10.0 mi NW 13.8 mph - N/A   Clear
7:15 AM 41.0 °F 33.5 °F 32.0 °F 70% 30.18 in 10.0 mi NNW 13.8 mph - N/A   Clear
7:35 AM 41.0 °F 32.8 °F 32.0 °F 70% 30.19 in 10.0 mi NNW 16.1 mph - N/A   Clear
7:55 AM 42.8 °F 34.8 °F 32.0 °F 66% 30.20 in 10.0 mi NNW 17.3 mph 24.2 mph N/A   Clear
8:15 AM 42.8 °F 34.0 °F 32.0 °F 66% 30.20 in 10.0 mi NNW 20.7 mph - N/A   Clear
8:35 AM 44.6 °F 36.6 °F 32.0 °F 61% 30.21 in 10.0 mi NNW 19.6 mph 26.5 mph N/A   Clear
8:55 AM 46.4 °F 39.0 °F 33.8 °F 62% 30.21 in 10.0 mi NNW 19.6 mph 27.6 mph N/A   Clear
9:15 AM 46.4 °F 38.7 °F 32.0 °F 57% 30.22 in 10.0 mi North 20.7 mph 31.1 mph N/A   Clear
9:35 AM 46.4 °F 38.5 °F 32.0 °F 57% 30.23 in 10.0 mi NNW 21.9 mph 28.8 mph N/A   Clear
9:55 AM 48.2 °F - 32.0 °F 54% 30.23 in 10.0 mi NNW 29.9 mph 35.7 mph N/A   Partly Cloudy
10:15 AM 46.4 °F 37.5 °F 30.2 °F 53% 30.24 in 10.0 mi NNW 27.6 mph 36.8 mph N/A   Partly Cloudy
10:35 AM 48.2 °F - 28.4 °F 46% 30.24 in 10.0 mi North 27.6 mph 34.5 mph N/A   Scattered Clouds
10:55 AM 46.4 °F 37.9 °F 26.6 °F 46% 30.25 in 10.0 mi NNW 25.3 mph 33.4 mph N/A   Mostly Cloudy
11:15 AM 48.2 °F - 26.6 °F 43% 30.24 in 10.0 mi NNW 27.6 mph 34.5 mph N/A   Scattered Clouds
11:35 AM 50.0 °F - 24.8 °F 37% 30.25 in 10.0 mi NNW 26.5 mph 36.8 mph N/A   Clear
11:55 AM 50.0 °F - 24.8 °F 37% 30.25 in 10.0 mi North 28.8 mph 34.5 mph N/A   Clear
12:15 PM 50.0 °F - 23.0 °F 35% 30.25 in 10.0 mi NNW 24.2 mph 38.0 mph N/A   Partly Cloudy
12:35 PM 50.0 °F - 24.8 °F 37% 30.25 in 10.0 mi NNW 28.8 mph - N/A   Scattered Clouds
12:55 PM 50.0 °F - 23.0 °F 35% 30.24 in 10.0 mi NNW 29.9 mph 36.8 mph N/A   Scattered Clouds
1:15 PM 51.8 °F - 24.8 °F 35% 30.25 in 10.0 mi NNW 28.8 mph 38.0 mph N/A   Partly Cloudy
1:35 PM 51.8 °F - 23.0 °F 33% 30.24 in 10.0 mi NNW 28.8 mph 36.8 mph N/A   Partly Cloudy
1:55 PM 53.6 °F - 23.0 °F 30% 30.24 in 10.0 mi NNW 24.2 mph 35.7 mph N/A   Partly Cloudy
2:15 PM 53.6 °F - 24.8 °F 33% 30.24 in 10.0 mi NW 23.0 mph 33.4 mph N/A   Scattered Clouds
2:35 PM 53.6 °F - 23.0 °F 30% 30.24 in 10.0 mi NNW 28.8 mph 38.0 mph N/A   Scattered Clouds
2:55 PM 53.6 °F - 23.0 °F 30% 30.23 in 10.0 mi NNW 26.5 mph 36.8 mph N/A   Partly Cloudy
3:15 PM 53.6 °F - 23.0 °F 30% 30.23 in 10.0 mi NNW 24.2 mph 35.7 mph N/A   Clear
3:35 PM 53.6 °F - 21.2 °F 28% 30.23 in 10.0 mi NW 27.6 mph 34.5 mph N/A   Clear
3:55 PM 55.4 °F - 21.2 °F 26% 30.22 in 10.0 mi NNW 25.3 mph 36.8 mph N/A   Clear
4:15 PM 55.4 °F - 21.2 °F 26% 30.21 in 10.0 mi NNW 28.8 mph - N/A   Clear
4:35 PM 55.4 °F - 19.4 °F 25% 30.21 in 10.0 mi NNW 24.2 mph 38.0 mph N/A   Clear
4:55 PM 55.4 °F - 17.6 °F 23% 30.20 in 10.0 mi NNW 29.9 mph 36.8 mph N/A   Clear
5:15 PM 53.6 °F - 17.6 °F 24% 30.21 in 10.0 mi NNW 26.5 mph 34.5 mph N/A   Clear
5:35 PM 55.4 °F - 17.6 °F 23% 30.21 in 10.0 mi NNW 24.2 mph 34.5 mph N/A   Clear
5:55 PM 55.4 °F - 19.4 °F 25% 30.21 in 10.0 mi NNW 21.9 mph 31.1 mph N/A   Clear
6:15 PM 53.6 °F - 17.6 °F 24% 30.21 in 10.0 mi NNW 24.2 mph 29.9 mph N/A   Clear
6:35 PM 53.6 °F - 15.8 °F 22% 30.21 in 10.0 mi NW 20.7 mph 29.9 mph N/A   Clear
6:55 PM 53.6 °F - 15.8 °F 22% 30.21 in 10.0 mi NNW 21.9 mph - N/A   Clear
7:15 PM 53.6 °F - 17.6 °F 24% 30.20 in 10.0 mi NNW 21.9 mph - N/A   Clear
7:35 PM 51.8 °F - 15.8 °F 24% 30.21 in 10.0 mi NNW 21.9 mph - N/A   Clear
7:55 PM 51.8 °F - 15.8 °F 24% 30.20 in 10.0 mi NNW 19.6 mph - N/A   Clear
8:15 PM 50.0 °F - 17.6 °F 28% 30.20 in 10.0 mi NNW 12.7 mph 19.6 mph N/A   Clear
8:35 PM 48.2 °F - 17.6 °F 30% 30.21 in 10.0 mi NNW 13.8 mph - N/A   Clear
8:55 PM 48.2 °F - 19.4 °F 32% 30.21 in 10.0 mi NNW 11.5 mph - N/A   Clear
9:15 PM 46.4 °F 41.9 °F 19.4 °F 34% 30.22 in 10.0 mi NNW 9.2 mph - N/A   Clear
9:35 PM 42.8 °F 37.5 °F 21.2 °F 42% 30.22 in 10.0 mi NNW 9.2 mph - N/A   Clear
9:55 PM 42.8 °F 38.0 °F 21.2 °F 42% 30.23 in 10.0 mi NW 8.1 mph - N/A   Clear
10:15 PM 42.8 °F 37.5 °F 21.2 °F 42% 30.23 in 10.0 mi NNW 9.2 mph - N/A   Clear
10:35 PM 39.2 °F 33.6 °F 23.0 °F 52% 30.23 in 10.0 mi NNW 8.1 mph - N/A   Clear
10:55 PM 39.2 °F 35.0 °F 23.0 °F 52% 30.23 in 10.0 mi NNW 5.8 mph - N/A   Clear
11:15 PM 37.4 °F 32.1 °F 23.0 °F 56% 30.23 in 10.0 mi North 6.9 mph - N/A   Clear
11:35 PM 37.4 °F 32.8 °F 23.0 °F 56% 30.23 in 10.0 mi NNW 5.8 mph - N/A   Clear
11:55 PM 35.6 °F 31.7 °F 23.0 °F 60% 30.24 in 10.0 mi NNW 4.6 mph - N/A   Clear